Regional Weather Roundup
Issued by NWS Charleston, SC

Current Version | Previous Version | Text Only | Print | Product List | Glossary Off
Versions: 1 2 3 4 5 6 7 8 9 10 11 12 13 14 15 16 17 18 19 20 21 22 23 24 25 26 27 28 29 30 31 32 33 34 35 36 37 38 39 40 41 42 43 44 45 46 47 48 49 50

000
ASUS42 KCHS 232225
RWRCHS

REGIONAL WEATHER ROUNDUP
NATIONAL WEATHER SERVICE CHARLESTON SC
600 PM EDT WED APR 23 2014

NOTE: "FAIR" INDICATES FEW OR NO CLOUDS BELOW 12,000 FEET WITH NO
SIGNIFICANT WEATHER AND/OR OBSTRUCTIONS TO VISIBILITY.

NOT ALL STATIONS ARE QUALITY CONTROLLED BY THE NATIONAL
WEATHER SERVICE. USE DATA WITH CAUTION...ESPECIALLY
DEWPOINT OBSERVATIONS.

SCZ027-030-031-034>040-042>050-232300-
...SOUTH CAROLINA...

CITY           SKY/WX    TMP DP  RH WIND       PRES   REMARKS
N CHARLESTON   SUNNY     84  46  26 N12G18    29.80S
WATERFRONT PRK   N/A     82 N/A N/A W7G16       N/A
FORT JOHNSON     N/A     75  64  69 SW5       29.85S
MOUNT PLEASANT LGT RAIN  82  52  34 N7        29.81R
JOHNS ISLAND   CLEAR     79  64  61 S8        29.81S
PINOPOLIS        N/A     77  57  50 N9        29.73F
MONCKS CORNER  FAIR      81  57  44 N5        29.81R HAZE
SUMMERVILLE    NOT AVBL
BEAUFORT MCAS  SUNNY     84  46  26 NW8       29.81S
BEAUFORT ARPT  FAIR      82  50  32 SW9       29.81S
HILTON HEAD IS SUNNY     82  43  24 W8        29.83S
GEORGETOWN     NOT AVBL
WALTERBORO     CLEAR     82  52  34 W7        29.82S
ORANGEBURG     SUNNY     82  39  21 NW8       29.82R
BARNWELL       FAIR      82  45  26 W7        29.83S
AIKEN          FAIR      81  50  34 CALM      29.87R
MANNING        FAIR      82  43  24 NW3       29.82R
KINGSTREE      NOT AVBL
COLUMBIA       SUNNY     82  36  19 W9        29.82S
SUMTER         SUNNY     81  39  22 NW9       29.81R
FLORENCE       SUNNY     80  35  19 N13G18    29.81S
MYRTLE BEACH   SUNNY     73  61  64 S12       29.79S
N MYRTLE BEACH SUNNY     72  59  63 S10       29.80R

$$

GAZ063-065-086>088-099>101-113>116-118-119-134-136>141-150-232300-
...GEORGIA...

CITY           SKY/WX    TMP DP  RH WIND       PRES   REMARKS
SAVANNAH ARPT  SUNNY     84  49  29 NW12      29.83R
HUNTER AAF     SUNNY     84  51  31 W9        29.81S
FORT STEWART   SUNNY     83  61  47 W10       29.82F
STATESBORO     NOT AVBL
SYLVANIA       CLEAR     84  39  19 NW8       29.84R
CLAXTON        FAIR      82  55  39 W10       29.84S
THOMSON        SUNNY     80  48  32 W3        29.89R
AUGUSTA-BUSH   SUNNY     82  42  24 NE10      29.82S
AUGUSTA-DANIEL SUNNY     83  38  20 VRB5      29.84S
SWAINSBORO     FAIR      82  43  24 NW8       29.85S
VIDALIA        SUNNY     81  50  34 W7        29.85S
ALMA           MOSUNNY   82  54  37 NW6       29.85F
WAYCROSS       NOT AVBL
JESUP          CLOUDY    81  61  50 N7        29.85S
BRUNSWICK      SUNNY     82  55  39 W7        29.85S
SAINT SIMONS   SUNNY     83  56  39 NW6       29.84S

$$

SCZ027-028-034-036>038-045-046-048>050-GAZ119-141-232300-
...LAKE AND SUPPLEMENTAL COASTAL OBSERVATIONS...

STATION/POSITION TIME  TEMP    WIND        PRES    WAVE   SWELL
                       AIR SEA DIR/SP/G            HT/PER HT/PER/DIR
                 (UTC) (F)     (DEG/KT/KT) (MB)    (FT/S) (FT/S/D)
UPR LAKE MARION  NOT AVBL
WINYAH BAY       2100   80     300/  9     1008.0F
LAKE MURRAY      2200   80     310/  2/  6 1009.5S
ACE BASIN NERRS  2100   84     300/  4     1010.0S
FORT PULASKI     NOT AVBL
SAPELO ISLAND    2100   84     300/  9     1011.0S

$$

ANZ835-935-AMZ111-154-330-350-352-354-374-450-454-472-232300-
...C-MAN AND BUOY OBSERVATIONS...

STATION/POSITION TIME  TEMP    WIND        PRES    WAVE   SWELL
                       AIR SEA DIR/SP/G            HT/PER HT/PER/DIR
                 (UTC) (F)     (DEG/KT/KT) (MB)    (FT/S) (FT/S/D)
FOLLY BEACH CMAN 2200   69     220/ 11/ 13 1009.8R
BUOY 41004       2200   68 68  220/ 10/ 12 1009.4S   3/ 8   2/ 8
BUOY 41008       2200   70 69  170/  6/  6 1010.4F   1/ 9   2/ 90/ 9
5E ST. MARYS GA  2200      70                N/A     1/10
FRYING PAN BUOY  2200   69 69  240/ 12/ 14 1008.7R   2/ 9   2/100/ 9
BUOY 41025       2200   62 76   10/  6/ 10 1009.1R   5/ 8   5/ 50/ 8
CAPE LOOKOUT NC  2200   63     100/  6/  6 1008.8R
BUOY 41002       NOT AVBL
BUOY 41010       2200   74 76  300/ 10/ 12 1012.1R   3/ 8   3/ 60/ 8
BUOY 41012       NOT AVBL
ST AUGUSTINE FL  2200   70     140/  8/  8 1011.8S
CAPERS NEARSHORE NOT AVBL
FRIPP NEARSHORE  2100   70     210/ 12/ 14   N/A


$$



USA.gov is the U.S. government's official web portal to all federal, state and local government web resources and services.